EW7826 Weather Reports


time (UTC)temp
F
wind
direction
speed
knots
gust
knots
rain 1hr
in
rain 24hr
in
rain mn
in
humidity
%
barometer
mb
20260508114817 50 0.0 0.0 0.00 0.00 0.00 86 1013.9
20260508113817 50 0.0 0.9 0.00 0.00 0.00 86 1013.9
20260508112818 50 0.0 0.0 0.00 0.00 0.00 86 1013.8
20260508111818 50 0.0 0.0 0.00 0.00 0.00 86 1013.7
20260508110817 50 0.0 0.0 0.00 0.00 0.00 86 1013.5
20260508105817 50 0.0 0.0 0.00 0.00 0.00 86 1013.5
20260508104817 50 0.0 0.0 0.00 0.00 0.00 86 1013.6
20260508103817 50 0.0 0.0 0.00 0.00 0.00 86 1013.5
20260508102837 50 0.0 0.0 0.00 0.00 0.00 86 1013.5
20260508101817 50 0.0 0.0 0.00 0.00 0.00 86 1013.5
20260508100837 50 0.0 0.0 0.00 0.00 0.00 86 1013.4
20260508095817 50 0.0 0.0 0.00 0.00 0.00 86 1013.2
20260508094816 50 0.0 0.0 0.00 0.00 0.00 86 1013.3
20260508093817 50 0.0 0.0 0.00 0.00 0.00 86 1013.2
20260508092817 50 0.0 0.0 0.00 0.00 0.00 86 1013.2
20260508091817 50 0.0 0.0 0.00 0.00 0.00 86 1013.2
20260508090817 50 0.0 0.0 0.00 0.00 0.00 86 1013.3
20260508085857 51 0.0 0.0 0.00 0.00 0.00 86 1013.3
20260508084817 51 0.0 0.0 0.00 0.00 0.00 86 1013.2
20260508083817 51 0.0 0.0 0.00 0.00 0.00 86 1013.3
20260508082816 52 0.0 0.0 0.00 0.00 0.00 86 1013.4
20260508081817 52 0.0 0.0 0.00 0.00 0.00 86 1013.5
20260508080817 52 0.0 0.0 0.00 0.00 0.00 86 1013.4
20260508075816 52 293 0.9 1.7 0.00 0.00 0.00 86 1013.3
20260508074817 52 293 0.9 1.7 0.00 0.00 0.00 86 1013.4
20260508073816 52 0.0 0.0 0.00 0.00 0.00 86 1013.4
20260508072817 51 0.0 0.0 0.00 0.00 0.00 86 1013.6
20260508071817 52 0.0 0.0 0.00 0.00 0.00 86 1013.5
20260508070817 52 0.0 0.0 0.00 0.00 0.00 86 1013.6
20260508065817 52 0.0 0.0 0.00 0.00 0.00 86 1013.5
20260508064816 53 0.0 0.0 0.00 0.00 0.00 86 1013.5
20260508063817 53 0.0 0.0 0.00 0.00 0.00 86 1013.6
20260508062816 53 0.0 0.0 0.00 0.00 0.00 86 1013.6
20260508061816 53 0.0 0.0 0.00 0.00 0.00 86 1013.5
20260508060837 53 0.0 0.0 0.00 0.00 0.00 86 1013.7
20260508055817 53 0.0 0.0 0.00 0.00 0.00 85 1013.8
20260508054817 53 0.0 0.0 0.00 0.00 0.00 85 1013.9
20260508053816 53 0.0 0.0 0.00 0.00 0.00 85 1013.8
20260508052817 53 0.0 0.0 0.00 0.00 0.00 85 1013.8
20260508051816 54 0.0 0.0 0.00 0.00 0.00 84 1013.8
20260508050816 55 0.0 0.0 0.00 0.00 0.00 82 1013.8
20260508045817 56 0.0 0.0 0.00 0.00 0.00 76 1013.7
20260508044817 57 0.0 0.0 0.00 0.00 0.00 75 1013.7
20260508043816 57 0.0 0.0 0.00 0.00 0.00 74 1013.7
20260508042837 57 0.0 0.0 0.00 0.00 0.00 74 1013.8
20260508041817 57 0.0 0.0 0.00 0.00 0.00 74 1013.8
20260508040817 57 0.0 0.0 0.00 0.00 0.00 75 1013.9
20260508035837 56 0.0 0.0 0.00 0.00 0.00 76 1013.9
20260508034836 56 0.0 0.0 0.00 0.00 0.00 78 1013.8
20260508033816 56 0.0 0.0 0.00 0.00 0.00 77 1013.7
20260508032816 57 0.0 0.0 0.00 0.00 0.00 77 1013.8
20260508031816 57 0.0 0.0 0.00 0.00 0.00 75 1013.7
20260508030816 58 0.0 0.0 0.00 0.00 0.00 74 1013.8
20260508025816 58 0.0 0.0 0.00 0.00 0.00 73 1013.8
20260508024816 59 0.0 0.0 0.00 0.00 0.00 70 1013.9
20260508023816 61 0.0 0.0 0.00 0.00 0.00 66 1014.1
20260508022816 61 0.0 0.0 0.00 0.00 0.00 63 1014.0
20260508021816 62 0.0 0.0 0.00 0.00 0.00 62 1014.0
20260508020816 62 0.0 0.0 0.00 0.00 0.00 61 1014.0
20260508015816 63 0.0 0.0 0.00 0.00 0.00 61 1014.1
20260508014816 63 0.0 0.0 0.00 0.00 0.00 62 1014.0
20260508013816 63 0.0 0.0 0.00 0.00 0.00 60 1014.0
20260508012816 63 0.0 0.0 0.00 0.00 0.00 61 1014.2
20260508011816 63 0.0 0.0 0.00 0.00 0.00 60 1014.4
20260508010816 63 0.0 0.0 0.00 0.00 0.00 60 1014.5
20260508005816 63 0.0 0.0 0.00 0.00 0.00 63 1014.6
20260508004816 63 0.0 0.0 0.00 0.00 0.00 63 1014.7
20260508003816 63 0.0 0.0 0.00 0.00 0.00 63 1014.6
20260508002816 63 0.0 0.0 0.00 0.00 0.00 64 1014.7
20260508001816 62 0.0 0.0 0.00 0.00 0.00 63 1014.8
20260508000816 63 0.0 0.0 0.00 0.00 0.00 62 1014.9
20260507234816 62 0.0 0.9 0.00 0.00 0.00 63 1015.0
20260507233816 62 0.0 0.0 0.00 0.00 0.00 64 1015.0
20260507232816 62 0.0 0.0 0.00 0.00 0.00 65 1015.1
20260507231816 62 0.0 0.0 0.00 0.00 0.00 67 1015.1
20260507230836 62 0.0 0.0 0.00 0.00 0.00 67 1015.1
20260507225816 61 0.0 0.0 0.00 0.00 0.00 67 1015.3
20260507224815 60 0.0 0.0 0.00 0.00 0.00 68 1015.5
20260507223816 60 0.0 0.0 0.00 0.00 0.00 66 1015.5
20260507222816 60 0.0 0.0 0.00 0.00 0.00 68 1015.6
20260507221816 60 0.0 0.0 0.00 0.00 0.00 69 1015.8
20260507220816 60 0.0 0.0 0.00 0.00 0.00 69 1015.8
20260507215816 59 0.0 0.0 0.00 0.00 0.00 70 1015.9
20260507214815 58 315 0.9 2.6 0.00 0.00 0.00 72 1015.9
20260507213816 58 0.0 1.7 0.00 0.00 0.00 73 1016.0
20260507212815 58 0 0.9 3.5 0.00 0.00 0.00 77 1016.2
20260507211815 58 0.0 0.0 0.00 0.00 0.00 77 1016.3
20260507210836 58 0.0 0.0 0.00 0.00 0.00 79 1016.4
20260507205815 57 0.0 2.6 0.00 0.00 0.00 80 1016.5
20260507204816 56 0.0 0.0 0.00 0.00 0.00 81 1016.5
20260507203816 56 315 3.5 5.2 0.00 0.00 0.00 79 1016.7
20260507202816 57 0.0 0.0 0.00 0.00 0.00 76 1016.8
20260507201815 57 0.0 0.0 0.00 0.00 0.00 77 1016.9
20260507200815 57 315 0.9 2.6 0.00 0.00 0.00 77 1016.9
20260507195816 59 0.0 0.0 0.00 0.00 0.00 75 1016.8
20260507194856 58 0.0 3.5 0.00 0.00 0.00 74 1016.9
20260507193815 58 0 1.7 4.3 0.00 0.00 0.00 71 1016.9
20260507192815 59 0.0 0.0 0.00 0.00 0.00 69 1016.8
20260507191815 59 0.0 0.0 0.00 0.00 0.00 70 1016.9
20260507190816 58 0.0 0.0 0.00 0.00 0.00 70 1016.9
20260507185815 58 0.0 0.9 0.00 0.00 0.00 73 1017.0
20260507184816 58 0.0 0.0 0.00 0.00 0.00 72 1017.0
20260507183815 58 0.0 0.9 0.00 0.00 0.00 74 1017.0
20260507182815 57 203 1.7 4.3 0.00 0.00 0.00 76 1017.1
20260507181856 56 0.0 0.0 0.00 0.00 0.00 77 1017.0
20260507180816 55 0.0 7.0 0.00 0.00 0.00 80 1017.0
20260507175815 54 0.0 0.0 0.00 0.00 0.00 81 1017.3
20260507174815 54 0.0 0.0 0.00 0.00 0.00 81 1017.5
20260507173815 55 0.0 0.0 0.00 0.00 0.00 80 1017.5
20260507172836 55 0.0 0.0 0.00 0.00 0.00 79 1017.5
20260507171815 55 315 0.9 3.5 0.00 0.00 0.00 81 1017.5
20260507170815 55 0.0 0.0 0.00 0.00 0.00 80 1017.5
20260507165815 55 180 1.7 3.5 0.00 0.00 0.00 79 1017.5
20260507164815 55 0.0 0.0 0.00 0.00 0.00 79 1017.5
20260507163816 55 270 1.7 3.5 0.00 0.00 0.00 80 1017.6
20260507162817 54 0.0 0.0 0.00 0.00 0.00 81 1017.4
20260507161837 54 0.0 0.0 0.00 0.00 0.00 81 1017.5
20260507160817 53 0.0 0.0 0.00 0.00 0.00 83 1017.6
20260507155818 53 0.0 0.0 0.00 0.00 0.00 84 1017.8
20260507154817 52 0.0 0.0 0.00 0.00 0.00 84 1017.8
20260507153837 52 0.0 0.0 0.00 0.00 0.00 84 1017.8
20260507152817 52 180 1.7 6.1 0.00 0.00 0.00 84 1017.9
20260507151838 52 0.0 0.0 0.00 0.00 0.00 85 1017.9
20260507150817 52 225 2.6 5.2 0.00 0.00 0.00 85 1017.7
20260507145817 52 225 1.7 4.3 0.00 0.00 0.00 85 1017.7
20260507144817 52 0.0 0.0 0.00 0.00 0.00 85 1017.8
20260507143817 52 158 0.9 3.5 0.00 0.00 0.00 85 1017.6
20260507142817 52 0.0 0.0 0.00 0.00 0.00 85 1017.6
20260507141817 52 0.0 1.7 0.00 0.00 0.00 86 1017.7
20260507140817 52 0.0 0.0 0.00 0.00 0.00 86 1017.6
20260507135817 51 0.0 0.0 0.00 0.00 0.00 86 1017.6
20260507134817 51 0.0 0.0 0.00 0.00 0.00 87 1017.5
20260507133817 51 0.0 0.0 0.00 0.00 0.00 87 1017.5
20260507132817 51 0.0 0.0 0.00 0.00 0.00 86 1017.5
20260507131817 51 0.0 0.0 0.00 0.00 0.00 86 1017.4
20260507130817 51 0.0 0.0 0.00 0.00 0.00 86 1017.5
20260507125817 51 0.0 0.0 0.00 0.00 0.00 86 1017.4
20260507124817 51 0.0 0.0 0.00 0.00 0.00 86 1017.4
20260507123817 51 0.0 0.0 0.00 0.00 0.00 86 1017.4
20260507122817 51 0.0 0.0 0.00 0.00 0.00 86 1017.4
20260507121817 51 0.0 0.0 0.00 0.00 0.00 86 1017.5
20260507120817 51 0.0 0.0 0.00 0.00 0.00 86 1017.5
20260507115817 51 0.0 0.0 0.00 0.00 0.00 86 1017.3